�N����,�����b,���ԉ��x,���Ԏ��x,��󒲎�,����,�����W,���։��x,���֎��x
2004/11/1,0:00:00,22.7,61.5,20.1,,22.5,22.8,53.7
2004/11/1,0:15:00,22.6,61.5,20.1,,22.4,22.8,53.9
2004/11/1,0:30:00,22.6,61.3,20,,22.4,22.7,54.1
2004/11/1,0:45:00,22.5,61.2,20,,22.3,22.7,54.1
2004/11/1,1:00:00,22.5,61.2,20,,22.3,22.7,54.1
2004/11/1,1:15:00,22.4,61.2,20,,22.2,22.6,54.1
2004/11/1,1:30:00,22.4,61.2,19.9,,22.1,22.6,54.1
2004/11/1,1:45:00,22.4,61.3,19.9,,22.1,22.5,54.1
2004/11/1,2:00:00,22.4,61.4,19.9,,22.2,22.5,54.1
2004/11/1,2:15:00,22.4,61.4,19.9,,22.2,22.5,54.1
2004/11/1,2:30:00,22.3,61.5,19.8,,22.2,22.4,54.1
2004/11/1,2:45:00,22.3,61.6,19.8,,22.2,22.4,54.1
2004/11/1,3:00:00,22.3,61.7,19.8,,22.2,22.4,54.1
2004/11/1,3:15:00,22.2,61.7,19.8,,22.2,22.4,54.2
2004/11/1,3:30:00,22.2,61.9,19.8,,22.1,22.4,54.3
2004/11/1,3:45:00,22.2,61.9,19.8,,22,22.3,54.3
2004/11/1,4:00:00,22.1,62.1,19.8,,22,22.3,54.3
2004/11/1,4:15:00,22.1,62.1,19.7,,21.9,22.3,54.3
2004/11/1,4:30:00,22,62.1,19.7,,21.9,22.3,54.3
2004/11/1,4:45:00,22,62.1,19.7,,21.8,22.3,54.4
2004/11/1,5:00:00,22,62,19.7,,21.7,22.2,54.4
2004/11/1,5:15:00,21.9,62.1,19.7,,21.7,22.2,54.4
2004/11/1,5:30:00,21.9,62.1,19.6,,21.6,22.1,54.4
2004/11/1,5:45:00,21.9,62.2,19.6,,21.6,22.1,54.4
2004/11/1,6:00:00,21.8,62.1,19.6,,21.5,22.1,54.4
2004/11/1,6:15:00,21.8,62.1,19.6,,21.5,22.1,54.4
2004/11/1,6:30:00,21.8,62.2,19.6,,21.5,22.1,54.4
2004/11/1,6:45:00,22.1,61.9,19.7,,21.6,22,54.4
2004/11/1,7:00:00,21.9,62.2,19.8,,21.7,22,54.6
2004/11/1,7:15:00,21.9,64.3,19.8,,23.2,22,54.7
2004/11/1,7:30:00,22,63.9,19.7,,23.1,22,55.5
2004/11/1,7:45:00,21.8,63.5,19.8,,22.8,22,55.8
2004/11/1,8:00:00,21.8,63.1,19.8,,22.6,21.9,55.7
2004/11/1,8:15:00,21.7,63,19.8,,22.4,21.9,55.6
2004/11/1,8:30:00,21.7,63,19.9,,22.2,21.9,55.4
2004/11/1,8:45:00,21.7,63.1,19.9,,22.1,21.9,55.3
2004/11/1,9:00:00,21.6,63,19.9,,22,21.9,55.1
2004/11/1,9:15:00,21.7,62.8,19.9,,22,21.9,55.1
2004/11/1,9:30:00,21.8,63.4,20,,22,21.9,55.1
2004/11/1,9:45:00,21.8,63.7,20.1,,22.1,21.9,55.2
2004/11/1,10:00:00,21.9,64,20.1,,22.4,21.9,55
2004/11/1,10:15:00,21.9,63.9,20.1,,22.3,21.9,54.8
2004/11/1,10:30:00,22,64.6,20.1,,22.3,21.9,54.6
2004/11/1,10:45:00,22.2,64.6,20.2,,22.5,22,54.8
2004/11/1,11:00:00,22.4,64.4,20.1,,22.8,22.1,55.4
2004/11/1,11:15:00,22.7,64.2,20.1,,22.9,22.2,55.8
2004/11/1,11:30:00,22.8,63.6,20.2,,23,22.3,55.8
2004/11/1,11:45:00,23,63.3,20.2,,23.1,22.4,55.9
2004/11/1,12:00:00,22.9,63,20.4,,23.1,22.5,55.8
2004/11/1,12:15:00,23,62.7,20.6,,23.1,22.7,55.6
2004/11/1,12:30:00,23.1,62.5,20.7,,23.2,22.8,55.4
2004/11/1,12:45:00,23.3,62.3,20.6,,23.3,22.8,55.5
2004/11/1,13:00:00,23.4,62.3,20.6,,23.3,22.9,55.5
2004/11/1,13:15:00,23.5,62.2,20.6,,23.3,23,55.4
2004/11/1,13:30:00,23.5,62.2,20.6,,23.3,23.1,55.4
2004/11/1,13:45:00,23.5,62.8,20.6,,24.3,23.1,55.3
2004/11/1,14:00:00,23.5,65.6,20.6,,24.7,23.1,55.6
2004/11/1,14:15:00,23.6,65.2,20.6,,24.8,23.2,55.8
2004/11/1,14:30:00,23.6,64.8,20.6,,24.8,23.2,55.8
2004/11/1,14:45:00,23.6,65.1,20.6,,24.7,23.3,55.9
2004/11/1,15:00:00,23.6,65.7,20.6,,24.6,23.3,56
2004/11/1,15:15:00,23.6,65.5,20.6,,24.5,23.3,56.1
2004/11/1,15:30:00,23.6,65.1,20.6,,24.4,23.3,56.1
2004/11/1,15:45:00,23.6,64.9,20.6,,24.3,23.4,56.1
2004/11/1,16:00:00,23.6,64.7,20.6,,24.2,23.4,56
2004/11/1,16:15:00,23.6,64.5,20.6,,24.1,23.4,55.9
2004/11/1,16:30:00,23.6,64.3,20.6,,24.1,23.4,55.9
2004/11/1,16:45:00,23.6,64.2,20.6,,24.1,23.4,55.9
2004/11/1,17:00:00,23.6,63.9,20.6,,24,23.4,55.9
2004/11/1,17:15:00,23.6,63.7,20.6,,24,23.4,55.8
2004/11/1,17:30:00,23.6,63.3,20.6,,24,23.4,55.8
2004/11/1,17:45:00,23.5,63.1,20.6,,24,23.4,55.8
2004/11/1,18:00:00,23.5,63.1,20.6,,23.9,23.4,55.7
2004/11/1,18:15:00,23.5,63.2,20.6,,23.9,23.4,55.7
2004/11/1,18:30:00,23.5,63.4,20.6,,23.9,23.4,55.8
2004/11/1,18:45:00,23.5,63.4,20.6,,23.8,23.4,55.8
2004/11/1,19:00:00,23.4,62.4,20.7,,23.8,23.4,55.8
2004/11/1,19:15:00,23.4,61.5,20.8,,23.7,23.4,55.7
2004/11/1,19:30:00,23.5,62.3,20.8,,23.7,23.4,55.6
2004/11/1,19:45:00,23.6,62.5,20.8,,23.7,23.4,55.6
2004/11/1,20:00:00,23.6,62.5,20.7,,24,23.4,55.6
2004/11/1,20:15:00,23.7,64.1,20.7,,24.6,23.4,55.8
2004/11/1,20:30:00,23.7,64.2,20.7,,24.6,23.4,55.9
2004/11/1,20:45:00,23.7,64.1,20.7,,24.4,23.4,55.9
2004/11/1,21:00:00,23.7,64,20.7,,24.3,23.4,55.9
2004/11/1,21:15:00,23.7,63.9,20.7,,24.2,23.4,56
2004/11/1,21:30:00,23.8,64.2,20.7,,24.2,23.4,56.2
2004/11/1,21:45:00,23.8,63.9,20.8,,24.1,23.4,56.3
2004/11/1,22:00:00,23.7,63.1,20.9,,24.1,23.4,56.2
2004/11/1,22:15:00,23.6,62.5,21,,23.9,23.4,56.1
2004/11/1,22:30:00,23.7,62.8,21.1,,23.9,23.4,56.1
2004/11/1,22:45:00,23.7,62.8,21.1,,23.8,23.4,56
2004/11/1,23:00:00,23.7,62.9,21.2,,23.8,23.4,56
2004/11/1,23:15:00,23.6,62.5,21.2,,23.7,23.4,56.1
2004/11/1,23:30:00,23.5,62.3,21.3,,23.7,23.4,56.1
2004/11/1,23:45:00,23.4,62.2,21.3,,23.6,23.4,56
2004/11/2,0:00:00,23.4,62.1,21.3,,23.5,23.4,56
2004/11/2,0:15:00,23.3,62,21.3,,23.5,23.4,56.1
2004/11/2,0:30:00,23.3,62,21.3,,23.4,23.4,56.1
2004/11/2,0:45:00,23.3,62,21.3,,23.4,23.4,56.1
2004/11/2,1:00:00,23.2,62,21.3,,23.3,23.4,56.2
2004/11/2,1:15:00,23.1,62.1,21.3,,23.3,23.3,56.3
2004/11/2,1:30:00,23.1,62,21.3,,23.2,23.3,56.3
2004/11/2,1:45:00,23.1,62.2,21.3,,23.2,23.3,56.3
2004/11/2,2:00:00,23.1,62.2,21.3,,23.2,23.3,56.3
2004/11/2,2:15:00,23.1,62.3,21.3,,23.2,23.3,56.4
2004/11/2,2:30:00,23.1,62.4,21.3,,23.2,23.3,56.4
2004/11/2,2:45:00,23.1,62.4,21.3,,23.3,23.3,56.4
2004/11/2,3:00:00,23,62.2,21.3,,23.2,23.2,56.4
2004/11/2,3:15:00,23,62.1,21.3,,23.2,23.2,56.4
2004/11/2,3:30:00,23,62.1,21.3,,23.1,23.2,56.3
2004/11/2,3:45:00,22.9,62.2,21.3,,23.1,23.2,56.3
2004/11/2,4:00:00,22.9,62.2,21.3,,23,23.1,56.3
2004/11/2,4:15:00,22.9,62.3,21.3,,22.9,23.1,56.3
2004/11/2,4:30:00,22.8,62.4,21.3,,22.9,23.1,56.3
2004/11/2,4:45:00,22.8,62.5,21.3,,22.9,23.1,56.3
2004/11/2,5:00:00,22.8,62.5,21.3,,22.8,23.1,56.3
2004/11/2,5:15:00,22.7,62.5,21.2,,22.8,23,56.3
2004/11/2,5:30:00,22.7,62.5,21.2,,22.7,23,56.3
2004/11/2,5:45:00,22.7,62.5,21.2,,22.7,23,56.4
2004/11/2,6:00:00,22.7,62.8,21.2,,22.8,23,56.5
2004/11/2,6:15:00,22.7,63,21.2,,22.8,23,56.6
2004/11/2,6:30:00,22.7,63,21.2,,22.8,22.9,56.6
2004/11/2,6:45:00,22.7,63.3,21.2,,22.8,22.9,56.6
2004/11/2,7:00:00,22.8,63.7,21.2,,23.8,22.9,56.4
2004/11/2,7:15:00,22.8,65.7,21.2,,25.8,22.9,56.6
2004/11/2,7:30:00,22.8,66,21.3,,26.9,22.9,57.1
2004/11/2,7:45:00,22.9,65.8,21.2,,26.2,22.9,57.4
2004/11/2,8:00:00,23,65.6,21.2,,25.6,22.9,56.8
2004/11/2,8:15:00,23.1,65.5,21.3,,25,23,57
2004/11/2,8:30:00,23.1,65.4,21.3,,24.7,23,57.1
2004/11/2,8:45:00,23.2,65,21.3,,24.5,23.1,57.1
2004/11/2,9:00:00,23.5,63.9,21.4,,24.3,23.1,57.3
2004/11/2,9:15:00,23.6,63.6,21.4,,24.3,23.2,57.4
2004/11/2,9:30:00,23.7,63.3,21.5,,24.3,23.3,57.4
2004/11/2,9:45:00,23.9,63.4,21.5,,24.4,23.4,57.6
2004/11/2,10:00:00,24,62.8,21.6,,24.5,23.5,57.6
2004/11/2,10:15:00,24.2,62.5,21.6,,24.7,23.6,57.6
2004/11/2,10:30:00,24.4,62.1,21.7,,25,23.8,57.6
2004/11/2,10:45:00,24.6,61.7,21.7,,25.2,23.9,57.6
2004/11/2,11:00:00,24.7,61.2,21.9,,25.4,24,57.6
2004/11/2,11:15:00,24.9,59.6,22.2,,25.5,24.3,57.2
2004/11/2,11:30:00,25.1,59.2,22.4,,25.5,24.4,56.8
2004/11/2,11:45:00,25.2,59.1,22.5,,25.5,24.5,56.6
2004/11/2,12:00:00,25.3,59,22.6,,25.5,24.6,56.5
2004/11/2,12:15:00,25.4,58.7,22.7,,25.6,24.8,56.3
2004/11/2,12:30:00,25.5,58.5,22.8,,25.7,24.8,56
2004/11/2,12:45:00,25.5,58.5,22.9,,26.4,24.9,55.9
2004/11/2,13:00:00,25.6,58.2,23,,26.9,25,55.7
2004/11/2,13:15:00,25.7,58.4,23.1,,27.1,25.1,55.5
2004/11/2,13:30:00,25.9,57.7,23,,27.1,25.2,55.4
2004/11/2,13:45:00,26,58.5,23.1,,27,25.3,55.4
2004/11/2,14:00:00,25.9,59.1,23.2,,26.9,25.3,55.5
2004/11/2,14:15:00,25.9,59.2,23.2,,26.8,25.4,55.4
2004/11/2,14:30:00,26.1,58.5,23.2,,26.8,25.4,55.4
2004/11/2,14:45:00,26,58.5,23.1,,26.6,25.5,55.3
2004/11/2,15:00:00,25.9,59.1,23.1,,26.5,25.5,55.3
2004/11/2,15:15:00,25.8,58.9,23.1,,26.4,25.6,55.3
2004/11/2,15:30:00,25.8,58.4,23,,26.3,25.6,55.3
2004/11/2,15:45:00,25.7,58.7,23,,26.1,25.6,55.3
2004/11/2,16:00:00,25.7,58.8,23,,26,25.6,55.3
2004/11/2,16:15:00,25.6,59,22.9,,25.9,25.6,55.3
2004/11/2,16:30:00,25.6,58.3,22.9,,25.7,25.6,55.3
2004/11/2,16:45:00,25.5,56.8,22.9,,25.6,25.6,55.3
2004/11/2,17:00:00,25.4,55.4,22.9,,25.5,25.6,55.3
2004/11/2,17:15:00,25.3,54.8,22.8,,25.4,25.6,55.3
2004/11/2,17:30:00,25.3,54.5,22.8,,25.3,25.6,55.3
2004/11/2,17:45:00,25.2,54.4,22.8,,25.1,25.6,55.2
2004/11/2,18:00:00,25.1,54.6,22.8,,25.1,25.5,55.2
2004/11/2,18:15:00,25,54.5,22.7,,25,25.5,55.1
2004/11/2,18:30:00,25,54.4,22.7,,24.8,25.5,55.1
2004/11/2,18:45:00,24.9,54.6,22.7,,24.7,25.5,55
2004/11/2,19:00:00,24.9,54.6,22.7,,24.6,25.4,54.8
2004/11/2,19:15:00,24.8,54.6,22.6,,24.5,25.4,54.5
2004/11/2,19:30:00,24.7,54.7,22.6,,24.4,25.4,54.3
2004/11/2,19:45:00,24.7,54.8,22.6,,24.3,25.4,54.1
2004/11/2,20:00:00,24.6,54.8,22.5,,24.2,25.4,53.5
2004/11/2,20:15:00,24.6,54.9,22.5,,24.1,25.3,53.1
2004/11/2,20:30:00,24.5,54.9,22.5,,24.1,25.3,52.9
2004/11/2,20:45:00,24.4,55,22.4,,24,25.3,52.6
2004/11/2,21:00:00,24.4,55.1,22.4,,24,25.2,52.4
2004/11/2,21:15:00,24.3,55.5,22.4,,23.9,25.1,52.1
2004/11/2,21:30:00,24.4,55.6,22.4,,23.8,25.1,51.9
2004/11/2,21:45:00,24.4,55.6,22.4,,23.8,25.1,52
2004/11/2,22:00:00,24.3,56.4,22.4,,23.9,25,52.1
2004/11/2,22:15:00,24.3,57,22.4,,24.1,25,52.4
2004/11/2,22:30:00,24.3,57.7,22.4,,24.2,24.9,52.6
2004/11/2,22:45:00,24.3,57.8,22.4,,24.1,24.9,52.7
2004/11/2,23:00:00,24.2,58.1,22.4,,24,24.9,52.8
2004/11/2,23:15:00,24.3,58.7,22.4,,23.9,24.9,53.1
2004/11/2,23:30:00,24.3,59,22.4,,24,24.9,53.4
2004/11/2,23:45:00,24.3,60.2,22.3,,24,24.9,53.6
2004/11/3,0:00:00,24.3,61.2,22.3,,24,24.8,54.1
2004/11/3,0:15:00,24,60.4,22.4,,23.8,24.8,53.9
2004/11/3,0:30:00,23.9,60,22.4,,23.6,24.8,53.8
2004/11/3,0:45:00,23.9,59.3,22.4,,23.5,24.7,53.6
2004/11/3,1:00:00,23.8,59.2,22.4,,23.4,24.6,53.6
2004/11/3,1:15:00,23.7,59.1,22.4,,23.3,24.6,53.4
2004/11/3,1:30:00,23.7,59.1,22.4,,23.2,24.6,53.3
2004/11/3,1:45:00,23.6,59.3,22.3,,23.2,24.5,53.1
2004/11/3,2:00:00,23.6,59.3,22.3,,23.3,24.4,53
2004/11/3,2:15:00,23.5,59.4,22.3,,23.3,24.4,53
2004/11/3,2:30:00,23.5,59.3,22.3,,23.4,24.3,52.9
2004/11/3,2:45:00,23.4,59.5,22.2,,23.4,24.3,52.8
2004/11/3,3:00:00,23.4,59.8,22.2,,23.4,24.3,52.8
2004/11/3,3:15:00,23.3,59.6,22.2,,23.4,24.2,52.8
2004/11/3,3:30:00,23.3,59.4,22.2,,23.3,24.1,52.7
2004/11/3,3:45:00,23.2,59.3,22.1,,23.2,24.1,52.6
2004/11/3,4:00:00,23.1,59.2,22.1,,23.1,24,52.6
2004/11/3,4:15:00,23.1,59.3,22.1,,23.1,23.9,52.5
2004/11/3,4:30:00,23,59.4,22,,23,23.9,52.5
2004/11/3,4:45:00,23,59.5,22,,23,23.8,52.5
2004/11/3,5:00:00,22.9,59.6,22,,22.9,23.8,52.5
2004/11/3,5:15:00,22.9,59.7,21.9,,22.9,23.8,52.4
2004/11/3,5:30:00,22.8,59.8,21.9,,22.8,23.7,52.4
2004/11/3,5:45:00,22.8,59.9,21.9,,22.7,23.6,52.5
2004/11/3,6:00:00,22.7,60,21.8,,22.7,23.6,52.5
2004/11/3,6:15:00,22.7,60.1,21.8,,22.6,23.6,52.4
2004/11/3,6:30:00,22.6,60,21.7,,22.6,23.5,52.4
2004/11/3,6:45:00,22.7,60.5,21.7,,22.5,23.5,52.4
2004/11/3,7:00:00,22.6,60.5,21.7,,22.5,23.4,52.4
2004/11/3,7:15:00,22.6,60.5,21.6,,22.5,23.4,52.5
2004/11/3,7:30:00,22.5,60.8,21.6,,22.4,23.4,52.5
2004/11/3,7:45:00,22.4,60.4,21.6,,22.4,23.3,52.4
2004/11/3,8:00:00,22.4,60.5,21.5,,22.3,23.3,52.4
2004/11/3,8:15:00,22.4,60.5,21.5,,22.3,23.3,52.4
2004/11/3,8:30:00,22.4,60.7,21.5,,22.2,23.2,52.5
2004/11/3,8:45:00,22.4,60.7,21.4,,22.2,23.2,52.5
2004/11/3,9:00:00,23.1,59.6,21.5,,22.9,23.2,53
2004/11/3,9:15:00,22.9,60.9,21.6,,23.5,23.3,53.1
2004/11/3,9:30:00,22.9,61.9,21.5,,23.3,23.3,53.4
2004/11/3,9:45:00,22.8,61.8,21.4,,23,23.3,53.6
2004/11/3,10:00:00,22.9,61.8,21.4,,22.8,23.3,53.6
2004/11/3,10:15:00,22.8,62.3,21.4,,22.8,23.3,53.8
2004/11/3,10:30:00,22.8,63.1,21.5,,22.9,23.3,54.1
2004/11/3,10:45:00,22.9,63.2,21.4,,22.9,23.3,54.3
2004/11/3,11:00:00,22.8,62.8,21.4,,22.9,23.3,54.4
2004/11/3,11:15:00,22.8,62.4,21.4,,22.8,23.3,54.4
2004/11/3,11:30:00,22.8,62.3,21.5,,22.8,23.3,54.4
2004/11/3,11:45:00,22.9,62.4,21.5,,22.8,23.3,54.4
2004/11/3,12:00:00,23,62,21.6,,22.9,23.4,54.3
2004/11/3,12:15:00,23.2,61.3,21.7,,23,23.4,54.3
2004/11/3,12:30:00,23.3,60.5,21.7,,23.2,23.4,54.3
2004/11/3,12:45:00,23.4,60.1,21.6,,23.2,23.5,54.2
2004/11/3,13:00:00,23.3,60.9,21.7,,23.2,23.6,54.1
2004/11/3,13:15:00,23.3,61.6,21.8,,23.8,23.6,54.4
2004/11/3,13:30:00,23.5,65,22,,27.2,23.7,55.4
2004/11/3,13:45:00,23.6,65.7,22.1,,26.5,23.8,55.6
2004/11/3,14:00:00,23.6,64.5,22.1,,25.4,23.9,55.4
2004/11/3,14:15:00,23.6,62.8,22.1,,24.9,23.9,55.4
2004/11/3,14:30:00,23.6,62.4,22,,24.4,23.9,55
2004/11/3,14:45:00,23.6,62.5,21.9,,24.1,23.9,54.8
2004/11/3,15:00:00,23.5,62,21.9,,23.9,23.9,54.7
2004/11/3,15:15:00,23.6,61.1,22.1,,24,24,54.4
2004/11/3,15:30:00,23.7,61.6,22.2,,24,24,54.4
2004/11/3,15:45:00,23.8,61.3,22.1,,24,24,54.3
2004/11/3,16:00:00,23.8,62.1,21.9,,24,24,54.4
2004/11/3,16:15:00,23.7,62,21.9,,23.7,23.9,54.4
2004/11/3,16:30:00,23.7,61.9,21.8,,23.5,23.9,54.4
2004/11/3,16:45:00,23.6,61.9,21.7,,23.4,23.9,54.4
2004/11/3,17:00:00,23.7,62,21.7,,23.4,23.9,54.4
2004/11/3,17:15:00,23.6,62.3,21.7,,23.5,23.9,54.4
2004/11/3,17:30:00,23.7,63.4,21.6,,24.3,23.9,54.7
2004/11/3,17:45:00,23.6,63.4,21.6,,24.3,23.9,54.7
2004/11/3,18:00:00,23.6,62.8,21.6,,24.3,23.9,54.8
2004/11/3,18:15:00,23.5,62.3,21.5,,24.2,23.9,54.7
2004/11/3,18:30:00,23.4,61.6,21.5,,23.9,24,54.8
2004/11/3,18:45:00,23.4,61.3,21.4,,23.7,24,54.8
2004/11/3,19:00:00,23.5,62.3,21.4,,24.1,23.9,54.8
2004/11/3,19:15:00,23.5,63.9,21.3,,24.6,23.9,54.9
2004/11/3,19:30:00,23.6,63.9,21.3,,24.5,23.9,55.2
2004/11/3,19:45:00,23.5,63.5,21.3,,24.4,23.9,55.2
2004/11/3,20:00:00,23.5,63.1,21.2,,24.2,23.9,55.1
2004/11/3,20:15:00,23.5,62.7,21.2,,24.1,23.9,55
2004/11/3,20:30:00,23.5,62.3,21.1,,23.9,23.9,54.9
2004/11/3,20:45:00,23.5,62.1,21.2,,23.8,23.9,54.8
2004/11/3,21:00:00,23.5,62.1,21.3,,23.7,23.9,54.9
2004/11/3,21:15:00,23.9,61.8,21.4,,23.9,23.9,54.9
2004/11/3,21:30:00,23.7,62.1,21.5,,24,23.9,55
2004/11/3,21:45:00,23.6,61.8,21.5,,23.9,23.9,55
2004/11/3,22:00:00,23.5,61.5,21.5,,23.8,23.8,54.8
2004/11/3,22:15:00,23.5,61.2,21.6,,23.7,23.8,54.7
2004/11/3,22:30:00,23.5,61,21.6,,23.7,23.8,54.5
2004/11/3,22:45:00,23.5,61,21.5,,23.6,23.8,54.4
2004/11/3,23:00:00,23.8,60.8,21.5,,23.8,23.8,54.6
2004/11/3,23:15:00,23.6,62.1,21.4,,23.8,23.8,54.6
2004/11/3,23:30:00,23.6,63.1,21.3,,23.8,23.7,55.1
2004/11/3,23:45:00,23.5,63,21.2,,23.7,23.6,55.4
2004/11/4,0:00:00,23.4,62.7,21.2,,23.6,23.6,55.3
2004/11/4,0:15:00,23.3,62.4,21.1,,23.5,23.6,55.1
2004/11/4,0:30:00,23.2,62.1,21,,23.4,23.5,54.9
2004/11/4,0:45:00,23.1,61.9,21,,23.3,23.4,54.8
2004/11/4,1:00:00,23,61.7,20.9,,23.2,23.4,54.6
2004/11/4,1:15:00,23,61.5,20.8,,23.1,23.4,54.4
2004/11/4,1:30:00,22.9,61.3,20.8,,23,23.3,54.3
2004/11/4,1:45:00,22.9,61.1,20.7,,23,23.3,54.2
2004/11/4,2:00:00,22.8,61,20.7,,23,23.2,54.1
2004/11/4,2:15:00,22.8,60.9,20.6,,23,23.1,54.1
2004/11/4,2:30:00,22.7,60.9,20.6,,22.9,23.1,53.9
2004/11/4,2:45:00,22.7,60.9,20.5,,22.9,23.1,53.9
2004/11/4,3:00:00,22.6,61,20.5,,22.9,23,53.9
2004/11/4,3:15:00,22.6,60.9,20.4,,22.8,22.9,53.9
2004/11/4,3:30:00,22.5,60.8,20.4,,22.7,22.9,53.7
2004/11/4,3:45:00,22.4,60.8,20.3,,22.6,22.8,53.8
2004/11/4,4:00:00,22.3,60.9,20.3,,22.4,22.8,53.8
2004/11/4,4:15:00,22.3,60.8,20.2,,22.2,22.7,53.8
2004/11/4,4:30:00,22.2,60.8,20.2,,22.1,22.6,53.8
2004/11/4,4:45:00,22.2,60.8,20.1,,22,22.5,53.8
2004/11/4,5:00:00,22.1,60.7,20.1,,21.9,22.5,53.8
2004/11/4,5:15:00,22.1,60.8,20.1,,21.7,22.4,53.8
2004/11/4,5:30:00,22,60.8,20,,21.5,22.4,53.9
2004/11/4,5:45:00,22,60.9,20,,21.4,22.3,53.9
2004/11/4,6:00:00,21.9,60.9,19.9,,21.3,22.3,53.9
2004/11/4,6:15:00,21.9,60.9,19.9,,21.3,22.2,53.9
2004/11/4,6:30:00,21.8,60.9,19.9,,21.2,22.2,53.9
2004/11/4,6:45:00,21.8,61,19.8,,21.1,22.1,54
2004/11/4,7:00:00,21.7,61.1,19.8,,21.1,22.1,54.2
2004/11/4,7:15:00,21.6,60.5,19.9,,21,22.1,54.2
2004/11/4,7:30:00,21.7,61.8,20,,22,22.1,54.3
2004/11/4,7:45:00,21.9,65.2,20,,22.7,22.1,55.1
2004/11/4,8:00:00,22,64.2,20.3,,22.9,22.1,55.5
2004/11/4,8:15:00,22.1,62.7,20.4,,22.9,22.3,55.4
2004/11/4,8:30:00,22.1,65.1,20.4,,22.7,22.3,55.4
2004/11/4,8:45:00,22.3,64.1,20.4,,22.7,22.3,55.6
2004/11/4,9:00:00,22.3,64.8,20.3,,22.6,22.4,55.4
2004/11/4,9:15:00,22.2,64.4,20.2,,22.5,22.4,55.3
2004/11/4,9:30:00,22.2,63.9,20.2,,22.4,22.4,55.1
2004/11/4,9:45:00,22.1,63.4,20.1,,22.3,22.4,55.4
2004/11/4,10:00:00,22.1,63,20.1,,22.3,22.4,55.4
2004/11/4,10:15:00,22,62.6,20,,22.3,22.4,55.3
2004/11/4,10:30:00,22,62.3,20,,22.2,22.4,55.1
2004/11/4,10:45:00,22,62,19.9,,22.1,22.4,55
2004/11/4,11:00:00,21.9,61.6,19.9,,22,22.3,54.9
2004/11/4,11:15:00,21.9,61.5,19.9,,22,22.3,54.8
2004/11/4,11:30:00,21.8,61.2,19.8,,21.8,22.3,54.6
2004/11/4,11:45:00,21.8,61,19.8,,21.7,22.3,54.5
2004/11/4,12:00:00,21.8,60.8,19.8,,21.6,22.2,54.4
2004/11/4,12:15:00,21.7,60.5,19.8,,21.5,22.2,54.3
2004/11/4,12:30:00,21.7,60.5,19.7,,21.5,22.2,54.1
2004/11/4,12:45:00,21.7,60.8,19.7,,21.5,22.1,54.1
2004/11/4,13:00:00,21.7,61,19.7,,21.4,22.1,54.1
2004/11/4,13:15:00,21.7,61,19.7,,21.4,22.1,54.1
2004/11/4,13:30:00,21.7,61.1,19.7,,21.4,22.1,54.1
2004/11/4,13:45:00,21.7,60.8,19.7,,21.5,22.1,54.1
2004/11/4,14:00:00,21.6,61.1,19.7,,22.1,22.1,54.1
2004/11/4,14:15:00,21.6,60.8,19.7,,22.5,22.1,54.2
2004/11/4,14:30:00,21.6,61.3,19.7,,22.6,22.1,54.1
2004/11/4,14:45:00,21.6,61.2,19.7,,22.6,22,54.1
2004/11/4,15:00:00,21.6,61,19.7,,22.5,22,53.9
2004/11/4,15:15:00,21.5,60.9,19.6,,22.3,22,53.9
2004/11/4,15:30:00,21.5,60.4,19.6,,22.2,21.9,53.8
2004/11/4,15:45:00,21.5,60.1,19.6,,22,21.9,53.6
2004/11/4,16:00:00,21.4,59.8,19.5,,21.7,21.9,53.4
2004/11/4,16:15:00,21.4,59.8,19.5,,21.6,21.9,53.3
2004/11/4,16:30:00,21.4,59.6,19.5,,21.4,21.8,53.3
2004/11/4,16:45:00,21.3,59.3,19.5,,21.3,21.8,53.2
2004/11/4,17:00:00,21.3,59.2,19.5,,21.3,21.8,53.1
2004/11/4,17:15:00,21.2,59,19.4,,21.2,21.8,53
2004/11/4,17:30:00,21.2,58.9,19.4,,21.1,21.7,52.9
2004/11/4,17:45:00,21.1,58.8,19.4,,21,21.6,52.8
2004/11/4,18:00:00,21.1,58.8,19.3,,21,21.6,52.7
2004/11/4,18:15:00,21.1,58.7,19.3,,20.9,21.6,52.7
2004/11/4,18:30:00,21,58.8,19.3,,20.9,21.6,52.6
2004/11/4,18:45:00,21,58.9,19.3,,20.9,21.5,52.6
2004/11/4,19:00:00,21.1,60.4,19.2,,21,21.4,52.6
2004/11/4,19:15:00,21.1,62.2,19.2,,21,21.4,53.3
2004/11/4,19:30:00,21.1,61.9,19.2,,21.2,21.4,53.6
2004/11/4,19:45:00,21.1,62.9,19.1,,21.9,21.4,53.9
2004/11/4,20:00:00,21.2,62.9,19.1,,21.7,21.4,54.3
2004/11/4,20:15:00,21.2,62.7,19.1,,21.6,21.4,54.5
2004/11/4,20:30:00,21.1,62.4,19.1,,21.4,21.3,54.6
2004/11/4,20:45:00,21.1,62.1,19,,21.3,21.3,54.5
2004/11/4,21:00:00,21.1,62,19,,21.2,21.3,54.5
2004/11/4,21:15:00,21.4,62.1,19.1,,21.3,21.3,54.8
2004/11/4,21:30:00,22.3,59.5,19.1,,21.9,21.4,55.1
2004/11/4,21:45:00,22.3,59.6,19.1,,22.2,21.4,55
2004/11/4,22:00:00,22.3,59.3,19.1,,22.4,21.5,55
2004/11/4,22:15:00,22.7,57.5,19.1,,22.4,21.6,54.8
2004/11/4,22:30:00,22.3,57.7,19.1,,22.4,21.6,54.7
2004/11/4,22:45:00,22.7,56.9,19.1,,22.2,21.6,54.4
2004/11/4,23:00:00,22.4,57.8,19.1,,22.2,21.8,54.3
2004/11/4,23:15:00,22.2,61.7,19.1,,22,21.8,54.3
2004/11/4,23:30:00,22.4,60.7,19.1,,22.2,21.8,54.7
2004/11/4,23:45:00,22.1,62,19.1,,22,21.8,54.6
2004/11/5,0:00:00,21.9,62.4,19.1,,21.9,21.8,55
2004/11/5,0:15:00,21.8,62.7,19,,21.8,21.7,55.4
2004/11/5,0:30:00,21.7,63,19,,21.7,21.7,55.6
2004/11/5,0:45:00,21.6,63.2,19,,21.6,21.6,55.8
2004/11/5,1:00:00,21.5,63.4,19,,21.5,21.6,55.8
2004/11/5,1:15:00,21.4,63.5,19,,21.4,21.6,55.8
2004/11/5,1:30:00,21.4,63.6,18.9,,21.3,21.5,55.9
2004/11/5,1:45:00,21.3,63.4,18.9,,21.3,21.5,55.9
2004/11/5,2:00:00,21.2,63.2,18.9,,21.3,21.4,55.8
2004/11/5,2:15:00,21.2,63.2,18.9,,21.3,21.4,55.8
2004/11/5,2:30:00,21.1,63.2,18.8,,21.3,21.4,55.8
2004/11/5,2:45:00,21.1,63.2,18.8,,21.3,21.3,55.8
2004/11/5,3:00:00,21,63.2,18.8,,21.3,21.3,55.7
2004/11/5,3:15:00,21,63.4,18.8,,21.2,21.3,55.7
2004/11/5,3:30:00,20.9,63.2,18.7,,21.1,21.2,55.7
2004/11/5,3:45:00,20.8,63.3,18.7,,21,21.2,55.8
2004/11/5,4:00:00,20.7,63.2,18.7,,20.9,21.1,55.7
2004/11/5,4:15:00,20.7,63.1,18.6,,20.8,21.1,55.6
2004/11/5,4:30:00,20.6,62.8,18.6,,20.7,21.1,55.6
2004/11/5,4:45:00,20.5,63.1,18.6,,20.6,20.9,55.7
2004/11/5,5:00:00,20.5,63,18.5,,20.5,20.9,55.7
2004/11/5,5:15:00,20.4,63.1,18.5,,20.4,20.9,55.6
2004/11/5,5:30:00,20.3,63,18.5,,20.3,20.9,55.6
2004/11/5,5:45:00,20.3,63,18.5,,20.2,20.8,55.6
2004/11/5,6:00:00,20.3,62.6,18.4,,20.2,20.8,55.3
2004/11/5,6:15:00,20.3,62.7,18.4,,20.1,20.7,55.4
2004/11/5,6:30:00,20.2,62.6,18.4,,20.1,20.7,55.6
2004/11/5,6:45:00,20.2,62.5,18.4,,20.1,20.6,55.5
2004/11/5,7:00:00,20.2,62.5,18.3,,23.3,20.6,54.8
2004/11/5,7:15:00,20.2,63.2,18.3,,23,20.5,54.8
2004/11/5,7:30:00,20.3,65.1,18.3,,23.4,20.5,55.6
2004/11/5,7:45:00,20.3,65.6,18.3,,22.9,20.5,56.2
2004/11/5,8:00:00,20.6,64.5,18.4,,22.2,20.5,56.5
2004/11/5,8:15:00,21.7,60.8,18.5,,22.2,20.6,56.5
2004/11/5,8:30:00,21.8,60.5,18.5,,22.3,20.7,56.3
2004/11/5,8:45:00,21.5,60.5,18.6,,22.3,20.8,56.1
2004/11/5,9:00:00,21.9,59.9,18.6,,22.5,20.8,56
2004/11/5,9:15:00,21.6,62.3,18.6,,22.4,20.9,55.9
2004/11/5,9:30:00,22.2,59.4,18.6,,22.6,20.9,55.9
2004/11/5,9:45:00,21.9,61.4,18.6,,22.6,21.1,55.9
2004/11/5,10:00:00,22,61.3,18.7,,22.6,21.1,56.1
2004/11/5,10:15:00,22.1,61.7,18.7,,22.7,21.3,56.2
2004/11/5,10:30:00,22.2,61.3,18.8,,22.7,21.3,56.2
2004/11/5,10:45:00,22.1,59.7,18.9,,22.7,21.4,56
2004/11/5,11:00:00,22.2,58.1,19,,22.6,21.4,55.3
2004/11/5,11:15:00,22.4,57.9,19,,22.7,21.5,54.9
2004/11/5,11:30:00,22.6,57.8,19,,22.8,21.6,54.7
2004/11/5,11:45:00,22.7,57.7,19,,22.9,21.7,54.6
2004/11/5,12:00:00,22.8,57.6,19,,23,21.8,54.5
2004/11/5,12:15:00,22.9,57.4,19,,23.1,21.9,54.3
2004/11/5,12:30:00,23,57.3,19,,23.2,21.9,54.3
2004/11/5,12:45:00,23.1,57.4,19,,23.8,22,54.2
2004/11/5,13:00:00,23.2,57.1,19.1,,23.8,22.1,54.2
2004/11/5,13:15:00,23.3,59.4,19.1,,24.4,22.2,54.4
2004/11/5,13:30:00,23.3,59.7,19.1,,24.3,22.3,54.4
2004/11/5,13:45:00,23.3,60.1,19.1,,24.4,22.3,54.6
2004/11/5,14:00:00,23.4,60,19.1,,24.4,22.3,54.7
2004/11/5,14:15:00,23.4,60.8,19.1,,24.3,22.4,54.8
2004/11/5,14:30:00,23.4,60.5,19.1,,24.2,22.4,54.9
2004/11/5,14:45:00,23.2,60.4,19.4,,24,22.4,54.9
2004/11/5,15:00:00,23.1,59,19.6,,23.8,22.4,54.7
2004/11/5,15:15:00,23,58.2,19.7,,23.6,22.5,54.5
2004/11/5,15:30:00,23,58.3,19.8,,23.4,22.4,54.4
2004/11/5,15:45:00,22.9,58.1,19.8,,23.1,22.4,54.3
2004/11/5,16:00:00,22.8,57.6,19.9,,22.8,22.4,54.3
2004/11/5,16:15:00,22.7,57.5,19.9,,22.6,22.4,54.2
2004/11/5,16:30:00,22.6,57.4,19.9,,22.5,22.4,54.1
2004/11/5,16:45:00,22.5,57.3,19.9,,22.3,22.4,54.1
2004/11/5,17:00:00,22.4,57.3,19.9,,22.1,22.4,54.1
2004/11/5,17:15:00,22.3,57.4,19.9,,22,22.4,54.1
2004/11/5,17:30:00,22.2,57.5,19.9,,21.8,22.3,54.2
2004/11/5,17:45:00,22.1,57.6,19.9,,21.6,22.3,54.2
2004/11/5,18:00:00,22,57.7,19.9,,21.4,22.3,54.1
2004/11/5,18:15:00,22,57.7,19.9,,21.2,22.3,54.1
2004/11/5,18:30:00,21.9,57.7,19.9,,21.1,22.3,54
2004/11/5,18:45:00,21.8,57.9,19.9,,20.9,22.2,53.9
2004/11/5,19:00:00,21.7,58,19.8,,20.8,22.2,53.6
2004/11/5,19:15:00,21.6,58,19.8,,20.7,22.1,53.4
2004/11/5,19:30:00,21.6,58,19.8,,20.5,22.1,53.2
2004/11/5,19:45:00,21.5,58.1,19.8,,20.3,22.1,53
2004/11/5,20:00:00,21.4,58.2,19.7,,20.2,22,52.9
2004/11/5,20:15:00,21.3,58.4,19.7,,20.1,21.9,52.7
2004/11/5,20:30:00,21.2,58.4,19.7,,20,21.9,52.5
2004/11/5,20:45:00,21.2,58.3,19.7,,19.8,21.9,52.4
2004/11/5,21:00:00,21.1,58.4,19.6,,19.8,21.8,52.3
2004/11/5,21:15:00,21,58.4,19.6,,19.7,21.8,52.1
2004/11/5,21:30:00,20.9,58.4,19.6,,19.6,21.7,52
2004/11/5,21:45:00,20.9,58.6,19.5,,19.6,21.6,51.8
2004/11/5,22:00:00,21.1,60.4,19.4,,20.4,21.6,52.2
2004/11/5,22:15:00,21.1,60.6,19.3,,20.2,21.5,52.9
2004/11/5,22:30:00,21.1,62.6,19.2,,20,21.4,53.3
2004/11/5,22:45:00,21.1,63.7,19.2,,20.1,21.4,54
2004/11/5,23:00:00,21.2,64.8,19.1,,20.1,21.4,54.5
2004/11/5,23:15:00,21.2,66.4,19.1,,20,21.4,55.4
2004/11/5,23:30:00,21.2,66.4,19,,20,21.4,56.1
2004/11/5,23:45:00,21,64.2,19,,20.2,21.3,54
2004/11/6,0:00:00,20.9,63.6,19,,20.2,21.2,54.4
2004/11/6,0:15:00,20.8,63,18.9,,20.1,21.1,54.3
2004/11/6,0:30:00,20.7,62.9,18.9,,20,21.1,54.3